• Processing (Info)

  • MPEC 2014-U80 : 2014 UE57

    The following Minor Planet Electronic Circular may be linked-to from your own Web pages, but must not otherwise be redistributed electronically.

    A form allowing access to any MPEC is at the bottom of this page.


    Read MPEC 2014-U79 Read MPEC 2014-U81


    M.P.E.C. 2014-U80                                Issued 2014 Oct. 26, 19:16 UT
    
         The Minor Planet Electronic Circulars contain information on unusual
             minor planets and routine data on comets.  They are published
       on behalf of Commission 20 of the International Astronomical Union by the
              Minor Planet Center, Smithsonian Astrophysical Observatory,
                              Cambridge, MA 02138, U.S.A.
    
                 Prepared using the Tamkin Foundation Computer Network
    
                                  MPC@CFA.HARVARD.EDU
                URL https://www.minorplanetcenter.net/    ISSN 1523-6714
    
                                       2014 UE57
    
    Observations:
         K14U57E* C2014 10 24.32293 01 37 39.62 +06 24 32.1          19.1 VqEU080G96
         K14U57E  C2014 10 24.32959 01 37 39.40 +06 25 02.6          19.3 VqEU080G96
         K14U57E  C2014 10 24.33567 01 37 39.22 +06 25 30.3          19.3 VqEU080G96
         K14U57E  C2014 10 24.34177 01 37 39.04 +06 25 58.1          19.2 VqEU080G96
         K14U57E  C2014 10 24.40657 01 37 37.19 +06 30 54.6          19.4 VqEU080G96
         K14U57E  C2014 10 24.41051 01 37 37.10 +06 31 12.5          19.1 VqEU080G96
         K14U57E  C2014 10 24.41844 01 37 36.89 +06 31 48.8          19.6 VqEU080G96
         K14U57E KC2014 10 24.86184 01 37 31.37 +07 05 30.4          19.1  uEU080B42
         K14U57E KC2014 10 24.86610 01 37 31.89 +07 05 54.8          19.8 RqEU080160
         K14U57E KC2014 10 24.86659 01 37 31.24 +07 05 51.9          19.1  uEU080B42
         K14U57E KC2014 10 24.86883 01 37 31.82 +07 06 07.5          19.7 RqEU080160
         K14U57E KC2014 10 24.87017 01 37 31.79 +07 06 13.4          19.7 RqEU080160
         K14U57E KC2014 10 24.87105 01 37 31.13 +07 06 12.2          19.3  uEU080B42
         K14U57E KC2014 10 24.87154 01 37 31.75 +07 06 20.1          19.5 RqEU080160
         K14U57E KC2014 10 24.87424 01 37 31.70 +07 06 32.1          19.4 RqEU080160
         K14U57E IC2014 10 24.89912 01 37 31.36 +07 08 26.6          19.4 VqEU080958
         K14U57E KC2014 10 24.91008 01 37 31.08 +07 09 16.9          19.8 VqEU080958
         K14U57E KC2014 10 24.92104 01 37 30.74 +07 10 07.3          19.6 VqEU080958
         K14U57E KC2014 10 24.92425 01 37 30.22 +07 10 19.8                qEU080595
         K14U57E KC2014 10 24.93293 01 37 29.94 +07 10 59.6          19.7 VqEU080595
         K14U57E KC2014 10 24.94532 01 37 29.77 +07 11 57.9          19.4 RqEU080203
         K14U57E KC2014 10 24.96423 01 37 29.20 +07 13 24.3          19.2 RqEU080203
         K14U57E KC2014 10 24.98155 01 37 28.74 +07 14 43.5          19.0 RtEU080K38
         K14U57E KC2014 10 25.03319 01 37 27.38 +07 18 39.3          19.5 RtEU080K38
         K14U57E KC2014 10 25.07215401 37 29.15 +07 21 41.1          19.4 VuEU080H21
         K14U57E KC2014 10 25.07743801 37 29.04 +07 22 05.5          20.4 VuEU080H21
         K14U57E KC2014 10 25.08284101 37 28.92 +07 22 30.4          20.0 VuEU080H21
         K14U57E  C2014 10 25.14413101 37 27.94 +07 27 14.0          19.0 RtEU080H01
         K14U57E KC2014 10 25.14910 01 37 27.18 +07 27 36.3          19.5 RqEU080850
         K14U57E  C2014 10 25.15097901 37 27.76 +07 27 45.6          19.0 RtEU080H01
         K14U57E  C2014 10 25.15318 01 37 27.79 +07 27 56.6          19.8 RoEU080G48
         K14U57E  C2014 10 25.15451 01 37 27.77 +07 28 03.3          19.5 RoEU080G48
         K14U57E  C2014 10 25.15714 01 37 27.68 +07 28 14.7          19.8 RoEU080G48
         K14U57E KC2014 10 25.15811 01 37 26.93 +07 28 17.7          19.4 RqEU080850
         K14U57E  C2014 10 25.16011801 37 27.52 +07 28 27.7          19.1 RtEU080H01
         K14U57E KC2014 10 25.16714 01 37 26.61 +07 28 59.6          19.6 RqEU080850
         K14U57E  C2014 10 25.17202401 37 27.21 +07 29 22.3          18.8 RtEU080H01
         K14U57E KC2014 10 25.20453 01 37 25.48 +07 31 51.2          19.7 RqEU080850
         K14U57E KC2014 10 25.20921 01 37 25.72 +07 32 10.7          19.5 RqEU080H36
         K14U57E KC2014 10 25.21355 01 37 25.26 +07 32 32.4          19.4 RqEU080850
         K14U57E KC2014 10 25.21398 01 37 25.59 +07 32 33.0          19.5 RqEU080H36
         K14U57E KC2014 10 25.22257 01 37 24.97 +07 33 13.6          19.2 RqEU080850
         K14U57E KC2014 10 25.22825 01 37 25.18 +07 33 38.1          19.5 RqEU080H36
         K14U57E KC2014 10 25.23301 01 37 25.04 +07 33 59.9          19.8 RqEU080H36
         K14U57E KC2014 10 25.27559 01 37 24.21 +07 37 18.5          19.2 RqEU080448
         K14U57E KC2014 10 25.29169 01 37 23.76 +07 38 32.0          19.7 RqEU080448
         K14U57E KC2014 10 25.30370 01 37 23.39 +07 39 27.9          20.0 RqEU080448
         K14U57E  C2014 10 25.58638 01 37 19.42 +08 01 01.8          19.5 RoEU080300
         K14U57E  C2014 10 25.58806 01 37 19.39 +08 01 09.7          19.4 RoEU080300
         K14U57E  C2014 10 25.59313 01 37 19.23 +08 01 33.1          20.1 RoEU080300
         K14U57E KC2014 10 26.11503 01 37 12.66 +08 41 21.2          19.7 RoEU080291
         K14U57E KC2014 10 26.11602 01 37 12.65 +08 41 25.6          19.6 RoEU080291
         K14U57E KC2014 10 26.11701 01 37 12.63 +08 41 30.4          19.6 RoEU080291
         K14U57E KC2014 10 26.16452 01 37 10.90 +08 45 05.3          19.4 RqEU080H36
         K14U57E KC2014 10 26.18014 01 37 10.48 +08 46 17.1          20.0 RqEU080H36
         K14U57E KC2014 10 26.18771 01 37 10.27 +08 46 51.6          19.3 RqEU080H36
         K14U57E KC2014 10 26.78203 01 37 02.03 +09 32 00.7          19.8 VqEU080151
         K14U57E KC2014 10 26.78556 01 37 01.96 +09 32 16.8          19.8 VqEU080151
         K14U57E KC2014 10 26.78910 01 37 01.88 +09 32 32.9          19.7 VqEU080151
    
    Observer details:
    151 Eschenberg Observatory, Winterthur.  Observer M. Griesser.  0.60-m f/3.8
        astrograph + CCD.
    160 Castelmartini.  Observers M. Jaeger, E. Prosperi, S. Prosperi, W. Vollmann.
        Measurer E. Prosperi.  0.35-m f/10 Schmidt-Cassegrain + CCD.
    203 GiaGa Observatory.  Observers S. Foglia, G. Galli.  Measurer G. Galli.
        0.28-m f/6.8 Schmidt-Cassegrain + CCD.
    291 LPL/Spacewatch II.  Observer A. F. Tubbiolo.  1.8-m f/2.7 reflector + CCD.
    300 Bisei Spaceguard Center--BATTeRS.  Observers A. Asami, N. Hashimoto.
        1.0-m f/3.0 reflector + CCD.
    448 Desert Moon Observatory.  Observer B. L. Stevens.  0.3-m
        Schmidt-Cassegrain + CCD.
    595 Farra d'Isonzo.  Observer E. Pettarin.  0.61-m f/4.0 reflector + CCD.
    850 Cordell-Lorenz Observatory, Sewanee.  Observer D. T. Durig.  0.3-m f/2.5
        Schmidt-Cassegrain + CCD.
    958 Observatoire de Dax.  Observers P. Dupouy, J. B. de Vanssay.  Measurer
        P. Dupouy.  0.43-m f/2.7 reflector + CCD.
    B42 Vitebsk.  Observer V. Nevski.  0.3-m f/5.0 reflector + CCD.
    G48 Doc Greiner Research Obs., Rancho Hildalgo.  Observer M. Mills.  0.40-m
        f/10 Schmidt-Cassegrain + CCD.
    G96 Mt. Lemmon Survey.  Observer E. J. Christensen.  Measurers
        E. J. Christensen, A. R. Gibbs, A. D. Grauer, R. E. Hill, J. A. Johnson,
        R. A. Kowalski, S. M. Larson, F. C. Shelly.  1.5-m reflector + CCD.
    H01 Magdalena Ridge Observatory, Socorro.  Observers W. H. Ryan, E. V. Ryan.
        Measurer W. H. Ryan.  2.4-m f/8.9 reflector + CCD.
    H21 Astronomical Research Observatory, Westfield.  Observer R. Holmes.
        Measurers L. Buzzi, S. Foglia, T. Vorobjov, T. Linder.  0.61-m f/4.5
        astrograph + CCD.
    H36 Sandlot Observatory, Scranton.  Observer G. Hug.  0.56-m reflector + CCD.
    K38 M57 Observatory, Saltrio.  Observer G. Baj.  0.25-m f/8 Ritchey-Chretien
        + CCD.
    
    Orbital elements:
    2014 UE57                                                Earth MOID = 0.2298 AU
    Epoch 2014 Dec. 9.0 TT = JDT 2457000.5                  MPC
    M   9.35982              (2000.0)            P               Q
    n   0.20776699     Peri.  357.93549     +0.86500755     -0.48387822
    a   2.8232653      Node    32.11158     +0.46385948     +0.67030002
    e   0.5664407      Incl.   14.46218     +0.19130167     +0.56263643
    P   4.74           H   22.0           G   0.15           U   7
    Residuals in seconds of arc
    141024 G96  0.1+  0.1+    141024 203  0.3+  0.4+    141025 H36  0.1-  0.4+
    141024 G96  0.2-  0.2+    141024 203  0.3-  0.1+    141025 850  0.5-  0.5-
    141024 G96  0.2-  0.0     141024 K38  0.2-  0.1-    141025 H36  0.0   0.1+
    141024 G96  0.2-  0.1-    141025 K38  0.4+  0.6-    141025 H36  0.1-  0.0
    141024 G96  0.3-  0.3+    141025 H21  0.4-  0.4+    141025 448  0.3+  0.3-
    141024 G96  0.1-  0.2+    141025 H21  0.1-  0.5+    141025 448  0.8+  0.5-
    141024 G96  0.1-  0.3+    141025 H21  0.1+  0.5+    141025 448  0.6+  0.4+
    141024 B42  0.3+  0.2+    141025 H01  0.1-  0.0     141025 300  0.1-  0.4+
    141024 160  0.0   0.1-    141025 850  0.4+  0.7-    141025 300  0.2+  0.6+
    141024 B42  0.2+  0.1-    141025 H01  0.1-  0.1+    141025 300  0.1+  0.7+
    141024 160  0.0   0.1+    141025 G48  0.0   0.2-    141026 291  0.3-  0.2+
    141024 160  0.1+  0.2-    141025 G48  0.2+  0.4+    141026 291  0.2-  0.0
    141024 B42  0.3+  0.3-    141025 G48  0.1-  0.3-    141026 291  0.1-  0.3+
    141024 160  0.1+  0.2+    141025 850  0.5+  0.7-    141026 H36  0.1-  0.1-
    141024 160  0.4+  0.2-    141025 H01  0.1-  0.1+    141026 H36  0.1-  0.1+
    141024 958  0.2+  0.3+    141025 850  0.4-  0.3-    141026 H36  0.1-  0.1-
    141024 958  0.5+  0.2+    141025 H01  0.0   0.0     141026 151  0.2+  0.1-
    141024 958  0.1-  0.3+    141025 850  0.8-  0.2-    141026 151  0.2+  0.2-
    141024 595  0.4+  1.0-    141025 H36  0.2-  0.0     141026 151  0.2+  0.3-
    141024 595  0.2-  1.0-    141025 850  0.1-  0.4-
    
    Ephemeris:
    2014 UE57                a,e,i = 2.82, 0.57, 14                  q = 1.2241
    Date    TT    R. A. (2000) Decl.     Delta      r     Elong.  Phase     V
    2014 09 26    01 40 07.0 -21 20 56   0.3013  1.2695   148.5    24.3    21.0
    ...
    2014 10 11    01 41 05.9 -09 22 24   0.2468  1.2348   161.4    15.0    20.3
    ...
    2014 10 19    01 39 13.3 -00 16 11   0.2328  1.2260   169.8     8.2    19.9
    ...
    2014 10 25    01 37 28.8 +07 16 28   0.2307  1.2240   173.4     5.4    19.7
    2014 10 26    01 37 12.6 +08 32 48   0.2311  1.2241   173.2     5.5    19.7
    2014 10 27    01 36 57.3 +09 48 57   0.2318  1.2243   172.7     5.9    19.7
    ...
    2014 11 02    01 35 52.5 +17 12 20   0.2400  1.2277   167.3    10.2    20.0
    ...
    2014 11 10    01 36 17.3 +25 52 03   0.2621  1.2383   158.8    16.8    20.5
    ...
    2014 11 25    01 45 12.1 +37 06 13   0.3316  1.2762   146.2    25.5    21.3
    
    A. U. Tomatic                (C) Copyright 2014 MPC           M.P.E.C. 2014-U80
    

    Read MPEC 2014-U79 Read MPEC 2014-U81


    MPEC number:

    Enter an MPEC number in one of the following forms:

    • 1997-B01 (the full form)
    • J97B01 (the packed version of the full form)
    • B01 (the abbreviated form)